Time,TemperatureF,DewpointF,PressureIn,WindDirection,WindDirectionDegrees,WindSpeedMPH,WindSpeedGustMPH,Humidity,HourlyPrecipIn,Conditions,Clouds,dailyrainin,SoftwareType,DateUTC
2013-12-12 00:01:00,36.8,30.6,30.56,WNW,292,0.0,0.0,78,0.00,,,0.00,WeatherCatV1.23B14,2013-12-12 06:01:00,
2013-12-12 00:06:00,36.5,30.6,30.56,WNW,292,0.0,0.0,79,0.00,,,0.00,WeatherCatV1.23B14,2013-12-12 06:06:00,
2013-12-12 00:11:00,36.1,30.2,30.56,WNW,292,0.0,0.0,79,0.00,,,0.00,WeatherCatV1.23B14,2013-12-12 06:11:00,
2013-12-12 00:16:00,35.7,30.5,30.56,WNW,292,0.0,0.0,81,0.00,,,0.00,WeatherCatV1.23B14,2013-12-12 06:16:00,
2013-12-12 00:21:00,35.6,30.4,30.57,WNW,292,0.0,0.0,81,0.00,,,0.00,WeatherCatV1.23B14,2013-12-12 06:21:00,
2013-12-12 00:26:00,35.7,30.1,30.57,WNW,292,0.0,1.0,80,0.00,,,0.00,WeatherCatV1.23B14,2013-12-12 06:26:00,
2013-12-12 00:31:00,35.9,30.0,30.57,WNW,292,0.0,1.0,79,0.00,,,0.00,WeatherCatV1.23B14,2013-12-12 06:31:00,
2013-12-12 00:36:00,35.9,30.0,30.56,WNW,292,0.0,0.0,79,0.00,,,0.00,WeatherCatV1.23B14,2013-12-12 06:36:00,
2013-12-12 00:41:00,35.9,30.0,30.57,WNW,292,0.0,0.0,79,0.00,,,0.00,WeatherCatV1.23B14,2013-12-12 06:41:00,
2013-12-12 00:46:00,35.9,30.3,30.58,WNW,292,0.0,0.0,80,0.00,,,0.00,WeatherCatV1.23B14,2013-12-12 06:46:00,
2013-12-12 00:51:00,35.7,30.1,30.57,WNW,292,0.0,0.0,80,0.00,,,0.00,WeatherCatV1.23B14,2013-12-12 06:51:00,
2013-12-12 00:56:00,35.3,29.5,30.57,WNW,292,0.0,0.0,79,0.00,,,0.00,WeatherCatV1.23B14,2013-12-12 06:56:00,
2013-12-12 01:01:00,35.1,29.9,30.57,WNW,292,0.0,0.0,81,0.00,,,0.00,WeatherCatV1.23B14,2013-12-12 07:01:00,
2013-12-12 01:06:00,34.9,29.7,30.57,WNW,292,0.0,0.0,81,0.00,,,0.00,WeatherCatV1.23B14,2013-12-12 07:06:00,
2013-12-12 01:11:00,34.7,29.8,30.56,WNW,292,0.0,0.0,82,0.00,,,0.00,WeatherCatV1.23B14,2013-12-12 07:11:00,
2013-12-12 01:16:00,34.5,29.9,30.56,WNW,292,0.0,0.0,83,0.00,,,0.00,WeatherCatV1.23B14,2013-12-12 07:16:00,
2013-12-12 01:21:00,34.3,30.0,30.55,WNW,292,0.0,0.0,84,0.00,,,0.00,WeatherCatV1.23B14,2013-12-12 07:21:00,
2013-12-12 01:26:00,34.1,29.5,30.56,WNW,292,0.0,0.0,83,0.00,,,0.00,WeatherCatV1.23B14,2013-12-12 07:26:00,
2013-12-12 01:31:00,33.9,29.3,30.57,WNW,292,0.0,0.0,83,0.00,,,0.00,WeatherCatV1.23B14,2013-12-12 07:31:00,
2013-12-12 01:36:00,34.0,29.4,30.57,WNW,292,0.0,0.0,83,0.00,,,0.00,WeatherCatV1.23B14,2013-12-12 07:36:00,
2013-12-12 01:41:00,33.9,29.3,30.57,WNW,292,0.0,1.0,83,0.00,,,0.00,WeatherCatV1.23B14,2013-12-12 07:41:00,
2013-12-12 01:46:00,34.2,29.3,30.56,WNW,292,0.0,1.0,82,0.00,,,0.00,WeatherCatV1.23B14,2013-12-12 07:46:00,
2013-12-12 01:51:00,34.6,29.4,30.56,WNW,290,0.0,0.0,81,0.00,,,0.00,WeatherCatV1.23B14,2013-12-12 07:51:00,
2013-12-12 01:56:00,34.7,29.5,30.56,WNW,290,0.0,0.0,81,0.00,,,0.00,WeatherCatV1.23B14,2013-12-12 07:56:00,
2013-12-12 02:01:00,34.6,29.4,30.56,WNW,290,0.0,0.0,81,0.00,,,0.00,WeatherCatV1.23B14,2013-12-12 08:01:00,
2013-12-12 02:06:00,34.4,29.2,30.56,WNW,290,0.0,0.0,81,0.00,,,0.00,WeatherCatV1.23B14,2013-12-12 08:06:00,
2013-12-12 02:11:00,34.1,29.2,30.56,WNW,290,0.0,0.0,82,0.00,,,0.00,WeatherCatV1.23B14,2013-12-12 08:11:00,
2013-12-12 02:16:00,33.9,29.0,30.56,WNW,290,0.0,0.0,82,0.00,,,0.00,WeatherCatV1.23B14,2013-12-12 08:16:00,
2013-12-12 02:21:00,33.6,28.7,30.56,WNW,290,0.0,0.0,82,0.00,,,0.00,WeatherCatV1.23B14,2013-12-12 08:21:00,
2013-12-12 02:26:00,33.3,29.0,30.56,WNW,290,0.0,0.0,84,0.00,,,0.00,WeatherCatV1.23B14,2013-12-12 08:26:00,
2013-12-12 02:31:00,32.8,28.5,30.56,WNW,290,0.0,1.0,84,0.00,,,0.00,WeatherCatV1.23B14,2013-12-12 08:31:00,
2013-12-12 02:36:00,32.7,28.7,30.56,WNW,290,0.0,0.0,85,0.00,,,0.00,WeatherCatV1.23B14,2013-12-12 08:36:00,
2013-12-12 02:41:00,32.7,28.4,30.56,WNW,290,0.0,0.0,84,0.00,,,0.00,WeatherCatV1.23B14,2013-12-12 08:41:00,
2013-12-12 02:46:00,32.9,28.6,30.57,WNW,290,0.0,0.0,84,0.00,,,0.00,WeatherCatV1.23B14,2013-12-12 08:46:00,
2013-12-12 02:51:00,33.0,29.0,30.56,WNW,290,0.0,0.0,85,0.00,,,0.00,WeatherCatV1.23B14,2013-12-12 08:51:00,
2013-12-12 02:56:00,32.8,28.8,30.57,WNW,290,0.0,0.0,85,0.00,,,0.00,WeatherCatV1.23B14,2013-12-12 08:56:00,
2013-12-12 03:01:00,32.8,28.5,30.57,WNW,290,0.0,0.0,84,0.00,,,0.00,WeatherCatV1.23B14,2013-12-12 09:01:00,
2013-12-12 03:06:00,32.7,28.7,30.56,WNW,290,0.0,0.0,85,0.00,,,0.00,WeatherCatV1.23B14,2013-12-12 09:06:00,
2013-12-12 03:11:00,32.5,28.2,30.56,WNW,290,0.0,0.0,84,0.00,,,0.00,WeatherCatV1.23B14,2013-12-12 09:11:00,
2013-12-12 03:16:00,32.3,28.3,30.56,WNW,290,0.0,0.0,85,0.00,,,0.00,WeatherCatV1.23B14,2013-12-12 09:16:00,
2013-12-12 03:21:00,32.1,28.1,30.56,WNW,290,0.0,0.0,85,0.00,,,0.00,WeatherCatV1.23B14,2013-12-12 09:21:00,
2013-12-12 03:26:00,32.1,28.4,30.56,WNW,290,0.0,0.0,86,0.00,,,0.00,WeatherCatV1.23B14,2013-12-12 09:26:00,
2013-12-12 03:31:00,32.0,28.3,30.56,WNW,290,0.0,0.0,86,0.00,,,0.00,WeatherCatV1.23B14,2013-12-12 09:31:00,
2013-12-12 03:36:00,32.1,28.1,30.57,WNW,290,0.0,1.0,85,0.00,,,0.00,WeatherCatV1.23B14,2013-12-12 09:36:00,
2013-12-12 03:41:00,32.3,28.3,30.57,WNW,290,0.0,0.0,85,0.00,,,0.00,WeatherCatV1.23B14,2013-12-12 09:41:00,
2013-12-12 03:46:00,32.4,28.4,30.57,WNW,290,0.0,1.0,85,0.00,,,0.00,WeatherCatV1.23B14,2013-12-12 09:46:00,
2013-12-12 03:51:00,32.4,28.7,30.57,WNW,290,0.0,0.0,86,0.00,,,0.00,WeatherCatV1.23B14,2013-12-12 09:51:00,
2013-12-12 03:56:00,32.3,28.6,30.57,WNW,290,0.0,1.0,86,0.00,,,0.00,WeatherCatV1.23B14,2013-12-12 09:56:00,
2013-12-12 04:01:00,32.2,28.5,30.57,WNW,290,0.0,0.0,86,0.00,,,0.00,WeatherCatV1.23B14,2013-12-12 10:01:00,
2013-12-12 04:06:00,32.0,28.3,30.56,WNW,290,0.0,0.0,86,0.00,,,0.00,WeatherCatV1.23B14,2013-12-12 10:06:00,
2013-12-12 04:11:00,31.7,28.0,30.56,WNW,290,0.0,0.0,86,0.00,,,0.00,WeatherCatV1.23B14,2013-12-12 10:11:00,
2013-12-12 04:16:00,31.5,27.8,30.56,WNW,290,0.0,0.0,86,0.00,,,0.00,WeatherCatV1.23B14,2013-12-12 10:16:00,
2013-12-12 04:21:00,31.2,27.8,30.56,WNW,290,0.0,0.0,87,0.00,,,0.00,WeatherCatV1.23B14,2013-12-12 10:21:00,
2013-12-12 04:26:00,31.1,27.7,30.55,WNW,290,0.0,0.0,87,0.00,,,0.00,WeatherCatV1.23B14,2013-12-12 10:26:00,
2013-12-12 04:31:00,30.9,27.5,30.56,WNW,290,0.0,0.0,87,0.00,,,0.00,WeatherCatV1.23B14,2013-12-12 10:31:00,
2013-12-12 04:36:00,30.7,27.6,30.56,WNW,290,0.0,0.0,88,0.00,,,0.00,WeatherCatV1.23B14,2013-12-12 10:36:00,
2013-12-12 04:41:00,30.6,27.8,30.56,WNW,290,0.0,0.0,89,0.00,,,0.00,WeatherCatV1.23B14,2013-12-12 10:41:00,
2013-12-12 04:46:00,30.6,27.8,30.56,WNW,290,0.0,0.0,89,0.00,,,0.00,WeatherCatV1.23B14,2013-12-12 10:46:00,
2013-12-12 04:51:00,30.8,28.0,30.56,WNW,290,0.0,1.0,89,0.00,,,0.00,WeatherCatV1.23B14,2013-12-12 10:51:00,
2013-12-12 04:56:00,30.8,27.7,30.55,WNW,290,0.0,0.0,88,0.00,,,0.00,WeatherCatV1.23B14,2013-12-12 10:56:00,
2013-12-12 05:01:00,30.9,27.8,30.55,WNW,290,0.0,1.0,88,0.00,,,0.00,WeatherCatV1.23B14,2013-12-12 11:01:00,
2013-12-12 05:06:00,31.0,27.9,30.55,WNW,290,0.0,0.0,88,0.00,,,0.00,WeatherCatV1.23B14,2013-12-12 11:06:00,
2013-12-12 05:11:00,31.0,27.9,30.56,WNW,290,0.0,0.0,88,0.00,,,0.00,WeatherCatV1.23B14,2013-12-12 11:11:00,
2013-12-12 05:16:00,30.9,27.8,30.55,WNW,290,0.0,0.0,88,0.00,,,0.00,WeatherCatV1.23B14,2013-12-12 11:16:00,
2013-12-12 05:21:00,31.0,27.9,30.55,WNW,290,0.0,0.0,88,0.00,,,0.00,WeatherCatV1.23B14,2013-12-12 11:21:00,
2013-12-12 05:26:00,30.9,27.8,30.55,WNW,290,0.0,0.0,88,0.00,,,0.00,WeatherCatV1.23B14,2013-12-12 11:26:00,
2013-12-12 05:31:00,31.0,27.9,30.56,WNW,290,0.0,0.0,88,0.00,,,0.00,WeatherCatV1.23B14,2013-12-12 11:31:00,
2013-12-12 05:36:00,31.0,27.9,30.56,WNW,290,0.0,0.0,88,0.00,,,0.00,WeatherCatV1.23B14,2013-12-12 11:36:00,
2013-12-12 05:41:00,30.8,27.7,30.55,WNW,290,0.0,0.0,88,0.00,,,0.00,WeatherCatV1.23B14,2013-12-12 11:41:00,
2013-12-12 05:46:00,30.5,27.4,30.56,WNW,290,0.0,0.0,88,0.00,,,0.00,WeatherCatV1.23B14,2013-12-12 11:46:00,
2013-12-12 05:51:00,30.2,27.1,30.56,WNW,290,0.0,0.0,88,0.00,,,0.00,WeatherCatV1.23B14,2013-12-12 11:51:00,
2013-12-12 05:56:00,29.9,27.1,30.56,WNW,290,0.0,0.0,89,0.00,,,0.00,WeatherCatV1.23B14,2013-12-12 11:56:00,
2013-12-12 06:01:00,29.7,26.9,30.56,WNW,290,0.0,0.0,89,0.00,,,0.00,WeatherCatV1.23B14,2013-12-12 12:01:00,
2013-12-12 06:06:00,29.5,27.2,30.57,WNW,290,0.0,0.0,91,0.00,,,0.00,WeatherCatV1.23B14,2013-12-12 12:06:00,
2013-12-12 06:11:00,29.6,27.3,30.57,WNW,290,0.0,0.0,91,0.00,,,0.00,WeatherCatV1.23B14,2013-12-12 12:11:00,
2013-12-12 06:16:00,29.7,27.1,30.57,WNW,290,0.0,0.0,90,0.00,,,0.00,WeatherCatV1.23B14,2013-12-12 12:16:00,
2013-12-12 06:21:00,29.9,27.3,30.57,WNW,290,0.0,0.0,90,0.00,,,0.00,WeatherCatV1.23B14,2013-12-12 12:21:00,
2013-12-12 06:26:00,30.0,27.4,30.57,WNW,290,0.0,0.0,90,0.00,,,0.00,WeatherCatV1.23B14,2013-12-12 12:26:00,
2013-12-12 06:31:00,30.1,27.5,30.58,WNW,290,0.0,0.0,90,0.00,,,0.00,WeatherCatV1.23B14,2013-12-12 12:31:00,
2013-12-12 06:36:00,30.2,27.6,30.58,WNW,290,0.0,1.0,90,0.00,,,0.00,WeatherCatV1.23B14,2013-12-12 12:36:00,
2013-12-12 06:43:00,30.3,27.5,30.58,WNW,290,0.0,0.0,89,0.00,,,0.00,WeatherCatV1.23B14,2013-12-12 12:43:00,
2013-12-12 06:48:00,30.3,27.5,30.58,WNW,290,0.0,0.0,89,0.00,,,0.00,WeatherCatV1.23B14,2013-12-12 12:48:00,
2013-12-12 06:53:00,30.2,27.4,30.58,WNW,290,0.0,0.0,89,0.00,,,0.00,WeatherCatV1.23B14,2013-12-12 12:53:00,
2013-12-12 06:58:00,30.2,27.4,30.58,WNW,290,0.0,0.0,89,0.00,,,0.00,WeatherCatV1.23B14,2013-12-12 12:58:00,
2013-12-12 07:03:00,30.1,27.3,30.58,WNW,290,0.0,0.0,89,0.00,,,0.00,WeatherCatV1.23B14,2013-12-12 13:03:00,
2013-12-12 07:08:00,30.0,27.4,30.58,WNW,290,0.0,0.0,90,0.00,,,0.00,WeatherCatV1.23B14,2013-12-12 13:08:00,
2013-12-12 07:13:00,29.8,27.2,30.58,WNW,290,0.0,0.0,90,0.00,,,0.00,WeatherCatV1.23B14,2013-12-12 13:13:00,
2013-12-12 07:18:00,29.5,26.9,30.58,WNW,290,0.0,0.0,90,0.00,,,0.00,WeatherCatV1.23B14,2013-12-12 13:18:00,
2013-12-12 07:23:00,29.3,26.7,30.57,WNW,290,0.0,0.0,90,0.00,,,0.00,WeatherCatV1.23B14,2013-12-12 13:23:00,
2013-12-12 07:28:00,29.2,26.6,30.57,WNW,290,0.0,0.0,90,0.00,,,0.00,WeatherCatV1.23B14,2013-12-12 13:28:00,
2013-12-12 07:33:00,29.0,26.7,30.57,WNW,290,0.0,0.0,91,0.00,,,0.00,WeatherCatV1.23B14,2013-12-12 13:33:00,
2013-12-12 07:38:00,29.0,26.7,30.57,WNW,290,0.0,0.0,91,0.00,,,0.00,WeatherCatV1.23B14,2013-12-12 13:38:00,
2013-12-12 07:43:00,29.0,26.7,30.58,WNW,290,0.0,0.0,91,0.00,,,0.00,WeatherCatV1.23B14,2013-12-12 13:43:00,
2013-12-12 07:48:00,29.3,27.3,30.58,WNW,290,0.0,0.0,92,0.00,,,0.00,WeatherCatV1.23B14,2013-12-12 13:48:00,
2013-12-12 07:53:00,29.5,27.5,30.58,WNW,290,0.0,0.0,92,0.00,,,0.00,WeatherCatV1.23B14,2013-12-12 13:53:00,
2013-12-12 07:58:00,29.7,27.4,30.58,WNW,290,0.0,0.0,91,0.00,,,0.00,WeatherCatV1.23B14,2013-12-12 13:58:00,
2013-12-12 08:03:00,29.9,27.6,30.59,WNW,290,0.0,0.0,91,0.00,,,0.00,WeatherCatV1.23B14,2013-12-12 14:03:00,
2013-12-12 08:08:00,30.3,28.3,30.59,WNW,290,0.0,0.0,92,0.00,,,0.00,WeatherCatV1.23B14,2013-12-12 14:08:00,
2013-12-12 08:13:00,30.8,28.5,30.58,WNW,290,0.0,0.0,91,0.00,,,0.00,WeatherCatV1.23B14,2013-12-12 14:13:00,
2013-12-12 08:18:00,31.3,29.2,30.59,WNW,290,0.0,0.0,92,0.00,,,0.00,WeatherCatV1.23B14,2013-12-12 14:18:00,
2013-12-12 08:23:00,32.1,29.8,30.58,WNW,290,0.0,0.0,91,0.00,,,0.00,WeatherCatV1.23B14,2013-12-12 14:23:00,
2013-12-12 08:28:00,33.1,30.2,30.59,WNW,290,0.0,0.0,89,0.00,,,0.00,WeatherCatV1.23B14,2013-12-12 14:28:00,
2013-12-12 08:33:00,34.0,30.5,30.59,SW,229,0.0,1.0,87,0.00,,,0.00,WeatherCatV1.23B14,2013-12-12 14:33:00,
2013-12-12 08:38:00,34.2,30.2,30.59,SW,219,0.0,0.0,85,0.00,,,0.00,WeatherCatV1.23B14,2013-12-12 14:38:00,
2013-12-12 08:43:00,34.5,30.2,30.59,West,271,0.0,0.0,84,0.00,,,0.00,WeatherCatV1.23B14,2013-12-12 14:43:00,
2013-12-12 08:48:00,34.8,30.2,30.59,West,272,0.0,0.0,83,0.00,,,0.00,WeatherCatV1.23B14,2013-12-12 14:48:00,
2013-12-12 08:53:00,35.1,30.5,30.59,West,271,0.0,1.0,83,0.00,,,0.00,WeatherCatV1.23B14,2013-12-12 14:53:00,
2013-12-12 08:58:00,35.6,30.7,30.59,West,270,0.0,1.0,82,0.00,,,0.00,WeatherCatV1.23B14,2013-12-12 14:58:00,
2013-12-12 09:03:00,36.1,30.5,30.59,WNW,301,0.0,0.0,80,0.00,,,0.00,WeatherCatV1.23B14,2013-12-12 15:03:00,
2013-12-12 09:08:00,36.3,30.4,30.59,North,349,0.0,1.0,79,0.00,,,0.00,WeatherCatV1.23B14,2013-12-12 15:08:00,
2013-12-12 09:13:00,36.7,31.1,30.59,NW,323,0.0,0.0,80,0.00,,,0.00,WeatherCatV1.23B14,2013-12-12 15:13:00,
2013-12-12 09:18:00,37.1,30.9,30.59,SW,226,0.0,1.0,78,0.00,,,0.00,WeatherCatV1.23B14,2013-12-12 15:18:00,
2013-12-12 09:23:00,37.3,31.1,30.59,SW,214,0.0,1.0,78,0.00,,,0.00,WeatherCatV1.23B14,2013-12-12 15:23:00,
2013-12-12 09:28:00,37.8,30.9,30.60,WSW,246,0.0,1.0,76,0.00,,,0.00,WeatherCatV1.23B14,2013-12-12 15:28:00,
2013-12-12 09:33:00,38.4,31.8,30.60,SW,233,0.0,1.0,77,0.00,,,0.00,WeatherCatV1.23B14,2013-12-12 15:33:00,
2013-12-12 09:38:00,38.8,31.9,30.60,WNW,293,0.0,1.0,76,0.00,,,0.00,WeatherCatV1.23B14,2013-12-12 15:38:00,
2013-12-12 09:43:00,39.4,32.2,30.60,NW,305,0.0,1.0,75,0.00,,,0.00,WeatherCatV1.23B14,2013-12-12 15:43:00,
2013-12-12 09:48:00,39.8,31.9,30.60,NNE,29,0.0,4.0,73,0.00,,,0.00,WeatherCatV1.23B14,2013-12-12 15:48:00,
2013-12-12 09:53:00,39.9,32.0,30.60,WNW,291,0.0,1.0,73,0.00,,,0.00,WeatherCatV1.23B14,2013-12-12 15:53:00,
2013-12-12 09:58:00,40.6,32.0,30.60,West,274,0.0,1.0,71,0.00,,,0.00,WeatherCatV1.23B14,2013-12-12 15:58:00,
2013-12-12 10:03:00,40.8,31.8,30.60,East,91,0.0,1.0,70,0.00,,,0.00,WeatherCatV1.23B14,2013-12-12 16:03:00,
2013-12-12 10:08:00,41.5,32.8,30.60,SSE,152,0.0,1.0,71,0.00,,,0.00,WeatherCatV1.23B14,2013-12-12 16:08:00,
2013-12-12 10:13:00,42.1,33.0,30.60,SE,132,0.0,3.0,70,0.00,,,0.00,WeatherCatV1.23B14,2013-12-12 16:13:00,
2013-12-12 10:18:00,42.7,33.6,30.59,SE,129,0.0,4.0,70,0.00,,,0.00,WeatherCatV1.23B14,2013-12-12 16:18:00,
2013-12-12 10:23:00,42.6,32.8,30.59,SE,130,2.0,2.0,68,0.00,,,0.00,WeatherCatV1.23B14,2013-12-12 16:23:00,
2013-12-12 10:28:00,42.5,33.1,30.59,ESE,119,0.0,2.0,69,0.00,,,0.00,WeatherCatV1.23B14,2013-12-12 16:28:00,
2013-12-12 10:33:00,43.2,32.6,30.58,SE,131,1.0,3.0,66,0.00,,,0.00,WeatherCatV1.23B14,2013-12-12 16:33:00,
2013-12-12 10:38:00,43.5,33.3,30.58,WSW,249,0.0,1.0,67,0.00,,,0.00,WeatherCatV1.23B14,2013-12-12 16:38:00,
2013-12-12 10:43:00,44.2,34.0,30.58,SSE,147,0.0,2.0,67,0.00,,,0.00,WeatherCatV1.23B14,2013-12-12 16:43:00,
2013-12-12 10:48:00,44.6,34.0,30.58,North,4,0.0,1.0,66,0.00,,,0.00,WeatherCatV1.23B14,2013-12-12 16:48:00,
2013-12-12 10:53:00,44.8,34.1,30.58,ENE,62,0.0,1.0,66,0.00,,,0.00,WeatherCatV1.23B14,2013-12-12 16:53:00,
2013-12-12 10:58:00,45.1,33.7,30.58,ESE,117,0.0,2.0,64,0.00,,,0.00,WeatherCatV1.23B14,2013-12-12 16:58:00,
2013-12-12 11:03:00,45.7,35.0,30.58,SE,127,3.0,3.0,66,0.00,,,0.00,WeatherCatV1.23B14,2013-12-12 17:03:00,
2013-12-12 11:08:00,46.0,34.1,30.58,SE,126,1.0,3.0,63,0.00,,,0.00,WeatherCatV1.23B14,2013-12-12 17:08:00,
2013-12-12 11:13:00,46.3,35.2,30.57,North,350,0.0,1.0,65,0.00,,,0.00,WeatherCatV1.23B14,2013-12-12 17:13:00,
2013-12-12 11:18:00,47.3,35.0,30.57,ESE,117,0.0,2.0,62,0.00,,,0.00,WeatherCatV1.23B14,2013-12-12 17:18:00,
2013-12-12 11:23:00,47.3,35.0,30.56,NE,41,1.0,2.0,62,0.00,,,0.00,WeatherCatV1.23B14,2013-12-12 17:23:00,
2013-12-12 11:28:00,47.5,34.7,30.56,NNW,340,0.0,2.0,61,0.00,,,0.00,WeatherCatV1.23B14,2013-12-12 17:28:00,
2013-12-12 11:33:00,47.7,34.5,30.55,SE,138,0.0,2.0,60,0.00,,,0.00,WeatherCatV1.23B14,2013-12-12 17:33:00,
2013-12-12 11:38:00,48.7,35.0,30.55,NNW,337,1.0,3.0,59,0.00,,,0.00,WeatherCatV1.23B14,2013-12-12 17:38:00,
2013-12-12 11:43:00,48.4,34.7,30.54,North,354,0.0,3.0,59,0.00,,,0.00,WeatherCatV1.23B14,2013-12-12 17:43:00,
2013-12-12 11:48:00,48.7,35.4,30.54,NE,44,0.0,1.0,60,0.00,,,0.00,WeatherCatV1.23B14,2013-12-12 17:48:00,
2013-12-12 11:53:00,49.6,35.0,30.53,ESE,117,0.0,3.0,57,0.00,,,0.00,WeatherCatV1.23B14,2013-12-12 17:53:00,
2013-12-12 11:58:00,50.0,35.8,30.53,ENE,75,1.0,3.0,58,0.00,,,0.00,WeatherCatV1.23B14,2013-12-12 17:58:00,
2013-12-12 12:03:00,50.0,34.5,30.53,SE,129,1.0,5.0,55,0.00,,,0.00,WeatherCatV1.23B14,2013-12-12 18:03:00,
2013-12-12 12:08:00,49.9,35.7,30.53,SE,146,0.0,2.0,58,0.00,,,0.00,WeatherCatV1.23B14,2013-12-12 18:08:00,
2013-12-12 12:13:00,50.3,36.1,30.52,ESE,113,0.0,1.0,58,0.00,,,0.00,WeatherCatV1.23B14,2013-12-12 18:13:00,
2013-12-12 12:18:00,50.1,35.0,30.52,ESE,106,0.0,2.0,56,0.00,,,0.00,WeatherCatV1.23B14,2013-12-12 18:18:00,
2013-12-12 12:23:00,50.1,35.9,30.51,ESE,110,1.0,1.0,58,0.00,,,0.00,WeatherCatV1.23B14,2013-12-12 18:23:00,
2013-12-12 12:28:00,50.3,35.2,30.51,NNE,29,0.0,1.0,56,0.00,,,0.00,WeatherCatV1.23B14,2013-12-12 18:28:00,
2013-12-12 12:33:00,50.1,35.0,30.51,SSW,198,0.0,2.0,56,0.00,,,0.00,WeatherCatV1.23B14,2013-12-12 18:33:00,
2013-12-12 12:38:00,50.2,35.6,30.50,SE,124,1.0,4.0,57,0.00,,,0.00,WeatherCatV1.23B14,2013-12-12 18:38:00,
2013-12-12 12:43:00,50.0,35.4,30.50,North,350,0.0,1.0,57,0.00,,,0.00,WeatherCatV1.23B14,2013-12-12 18:43:00,
2013-12-12 12:48:00,50.0,35.8,30.50,East,94,0.0,1.0,58,0.00,,,0.00,WeatherCatV1.23B14,2013-12-12 18:48:00,
2013-12-12 12:53:00,50.9,36.2,30.50,SE,131,1.0,1.0,57,0.00,,,0.00,WeatherCatV1.23B14,2013-12-12 18:53:00,
2013-12-12 12:58:00,51.6,36.4,30.49,ESE,112,2.0,3.0,56,0.00,,,0.00,WeatherCatV1.23B14,2013-12-12 18:58:00,
2013-12-12 13:03:00,51.8,35.7,30.49,NNE,15,0.0,1.0,54,0.00,,,0.00,WeatherCatV1.23B14,2013-12-12 19:03:00,
2013-12-12 13:08:00,51.7,36.1,30.49,SW,230,0.0,1.0,55,0.00,,,0.00,WeatherCatV1.23B14,2013-12-12 19:08:00,
2013-12-12 13:13:00,52.1,36.4,30.48,SW,224,0.0,0.0,55,0.00,,,0.00,WeatherCatV1.23B14,2013-12-12 19:13:00,
2013-12-12 13:18:00,52.1,36.0,30.48,ESE,108,0.0,3.0,54,0.00,,,0.00,WeatherCatV1.23B14,2013-12-12 19:18:00,
2013-12-12 13:23:00,52.4,35.8,30.47,North,8,0.0,2.0,53,0.00,,,0.00,WeatherCatV1.23B14,2013-12-12 19:23:00,
2013-12-12 13:28:00,53.4,37.6,30.47,ESE,117,1.0,4.0,55,0.00,,,0.00,WeatherCatV1.23B14,2013-12-12 19:28:00,
2013-12-12 13:33:00,53.8,35.6,30.46,ESE,110,0.0,2.0,50,0.00,,,0.00,WeatherCatV1.23B14,2013-12-12 19:33:00,
2013-12-12 13:38:00,53.3,35.6,30.47,SSE,150,0.0,4.0,51,0.00,,,0.00,WeatherCatV1.23B14,2013-12-12 19:38:00,
2013-12-12 13:43:00,53.1,35.9,30.46,SE,125,1.0,3.0,52,0.00,,,0.00,WeatherCatV1.23B14,2013-12-12 19:43:00,
2013-12-12 13:48:00,53.0,35.4,30.46,ESE,120,1.0,2.0,51,0.00,,,0.00,WeatherCatV1.23B14,2013-12-12 19:48:00,
2013-12-12 13:53:00,53.2,36.0,30.46,SE,126,2.0,3.0,52,0.00,,,0.00,WeatherCatV1.23B14,2013-12-12 19:53:00,
2013-12-12 13:58:00,53.8,36.6,30.45,SSW,202,2.0,3.0,52,0.00,,,0.00,WeatherCatV1.23B14,2013-12-12 19:58:00,
2013-12-12 14:03:00,53.7,35.0,30.44,ESE,120,0.0,3.0,49,0.00,,,0.00,WeatherCatV1.23B14,2013-12-12 20:03:00,
2013-12-12 14:08:00,53.7,36.5,30.44,NNE,15,2.0,2.0,52,0.00,,,0.00,WeatherCatV1.23B14,2013-12-12 20:08:00,
2013-12-12 14:13:00,53.9,35.7,30.44,SE,146,1.0,3.0,50,0.00,,,0.00,WeatherCatV1.23B14,2013-12-12 20:13:00,
2013-12-12 14:18:00,54.3,35.5,30.44,ESE,107,0.0,4.0,49,0.00,,,0.00,WeatherCatV1.23B14,2013-12-12 20:18:00,
2013-12-12 14:23:00,54.1,35.9,30.44,South,178,3.0,3.0,50,0.00,,,0.00,WeatherCatV1.23B14,2013-12-12 20:23:00,
2013-12-12 14:28:00,54.1,35.4,30.44,WSW,255,1.0,1.0,49,0.00,,,0.00,WeatherCatV1.23B14,2013-12-12 20:28:00,
2013-12-12 14:33:00,54.2,36.0,30.44,SSE,148,0.0,2.0,50,0.00,,,0.00,WeatherCatV1.23B14,2013-12-12 20:33:00,
2013-12-12 14:38:00,54.3,36.1,30.43,SE,143,0.0,3.0,50,0.00,,,0.00,WeatherCatV1.23B14,2013-12-12 20:38:00,
2013-12-12 14:43:00,54.3,35.5,30.43,ESE,113,1.0,1.0,49,0.00,,,0.00,WeatherCatV1.23B14,2013-12-12 20:43:00,
2013-12-12 14:48:00,54.5,36.8,30.42,SE,139,1.0,4.0,51,0.00,,,0.00,WeatherCatV1.23B14,2013-12-12 20:48:00,
2013-12-12 14:53:00,54.1,36.9,30.42,ESE,120,2.0,2.0,52,0.00,,,0.00,WeatherCatV1.23B14,2013-12-12 20:53:00,
2013-12-12 14:58:00,54.1,36.9,30.42,South,185,1.0,3.0,52,0.00,,,0.00,WeatherCatV1.23B14,2013-12-12 20:58:00,
2013-12-12 15:03:00,54.1,36.4,30.42,SSW,204,0.0,2.0,51,0.00,,,0.00,WeatherCatV1.23B14,2013-12-12 21:03:00,
2013-12-12 15:08:00,54.2,36.5,30.42,SSW,198,0.0,2.0,51,0.00,,,0.00,WeatherCatV1.23B14,2013-12-12 21:08:00,
2013-12-12 15:13:00,54.1,35.9,30.42,South,174,0.0,2.0,50,0.00,,,0.00,WeatherCatV1.23B14,2013-12-12 21:13:00,
2013-12-12 15:18:00,54.0,35.8,30.42,South,191,1.0,4.0,50,0.00,,,0.00,WeatherCatV1.23B14,2013-12-12 21:18:00,
2013-12-12 15:23:00,53.9,35.7,30.41,ESE,117,2.0,2.0,50,0.00,,,0.00,WeatherCatV1.23B14,2013-12-12 21:23:00,
2013-12-12 15:25:00,53.8,35.6,30.41,ESE,107,0.0,1.0,50,0.00,,,0.00,WeatherCatV1.23B14,2013-12-12 21:25:00,
2013-12-12 15:30:00,53.9,35.7,30.41,SE,125,2.0,5.0,50,0.00,,,0.00,WeatherCatV1.23B14,2013-12-12 21:30:00,
2013-12-12 15:35:00,53.6,36.4,30.41,SSW,209,1.0,1.0,52,0.00,,,0.00,WeatherCatV1.23B14,2013-12-12 21:35:00,
2013-12-12 15:40:00,53.6,36.9,30.41,ESE,115,1.0,2.0,53,0.00,,,0.00,WeatherCatV1.23B14,2013-12-12 21:40:00,
2013-12-12 15:45:00,53.8,36.6,30.41,South,175,2.0,2.0,52,0.00,,,0.00,WeatherCatV1.23B14,2013-12-12 21:45:00,
2013-12-12 15:50:00,53.9,35.7,30.40,ESE,104,2.0,2.0,50,0.00,,,0.00,WeatherCatV1.23B14,2013-12-12 21:50:00,
2013-12-12 15:55:00,53.4,36.2,30.40,SSE,163,0.0,1.0,52,0.00,,,0.00,WeatherCatV1.23B14,2013-12-12 21:55:00,
2013-12-12 16:00:00,53.4,36.2,30.40,ESE,116,1.0,1.0,52,0.00,,,0.00,WeatherCatV1.23B14,2013-12-12 22:00:00,
2013-12-12 16:05:00,53.2,37.0,30.41,ESE,109,0.0,1.0,54,0.00,,,0.00,WeatherCatV1.23B14,2013-12-12 22:05:00,
2013-12-12 16:10:00,53.2,36.5,30.40,SE,133,0.0,1.0,53,0.00,,,0.00,WeatherCatV1.23B14,2013-12-12 22:10:00,
2013-12-12 16:15:00,53.2,36.0,30.40,SE,124,0.0,1.0,52,0.00,,,0.00,WeatherCatV1.23B14,2013-12-12 22:15:00,
2013-12-12 16:20:00,52.8,35.7,30.40,ESE,120,0.0,1.0,52,0.00,,,0.00,WeatherCatV1.23B14,2013-12-12 22:20:00,
2013-12-12 16:25:00,52.4,35.3,30.40,ESE,108,0.0,1.0,52,0.00,,,0.00,WeatherCatV1.23B14,2013-12-12 22:25:00,
2013-12-12 16:30:00,52.1,35.5,30.40,ESE,113,0.0,1.0,53,0.00,,,0.00,WeatherCatV1.23B14,2013-12-12 22:30:00,
2013-12-12 16:35:00,51.9,35.3,30.40,ESE,121,0.0,2.0,53,0.00,,,0.00,WeatherCatV1.23B14,2013-12-12 22:35:00,
2013-12-12 16:40:00,51.7,35.1,30.40,ESE,119,0.0,1.0,53,0.00,,,0.00,WeatherCatV1.23B14,2013-12-12 22:40:00,
2013-12-12 16:45:00,51.5,34.9,30.41,SE,124,0.0,0.0,53,0.00,,,0.00,WeatherCatV1.23B14,2013-12-12 22:45:00,
2013-12-12 16:50:00,51.3,36.6,30.41,SE,124,0.0,0.0,57,0.00,,,0.00,WeatherCatV1.23B14,2013-12-12 22:50:00,
2013-12-12 16:55:00,50.8,36.6,30.41,SE,124,0.0,0.0,58,0.00,,,0.00,WeatherCatV1.23B14,2013-12-12 22:55:00,
2013-12-12 17:00:00,50.3,37.4,30.41,SE,124,0.0,0.0,61,0.00,,,0.00,WeatherCatV1.23B14,2013-12-12 23:00:00,
2013-12-12 17:05:00,49.7,37.6,30.41,SE,124,0.0,0.0,63,0.00,,,0.00,WeatherCatV1.23B14,2013-12-12 23:05:00,
2013-12-12 17:10:00,49.1,37.8,30.40,SE,124,0.0,0.0,65,0.00,,,0.00,WeatherCatV1.23B14,2013-12-12 23:10:00,
2013-12-12 17:15:00,48.4,37.6,30.40,SE,124,0.0,0.0,66,0.00,,,0.00,WeatherCatV1.23B14,2013-12-12 23:15:00,
2013-12-12 17:20:00,47.7,37.7,30.40,SE,124,0.0,0.0,68,0.00,,,0.00,WeatherCatV1.23B14,2013-12-12 23:20:00,
2013-12-12 17:25:00,47.0,37.7,30.40,SE,124,0.0,0.0,70,0.00,,,0.00,WeatherCatV1.23B14,2013-12-12 23:25:00,
2013-12-12 17:30:00,46.5,37.6,30.39,SE,124,0.0,0.0,71,0.00,,,0.00,WeatherCatV1.23B14,2013-12-12 23:30:00,
2013-12-12 17:35:00,45.9,37.0,30.39,SE,124,0.0,0.0,71,0.00,,,0.00,WeatherCatV1.23B14,2013-12-12 23:35:00,
2013-12-12 17:40:00,45.4,37.3,30.39,SE,124,0.0,0.0,73,0.00,,,0.00,WeatherCatV1.23B14,2013-12-12 23:40:00,
2013-12-12 17:45:00,44.9,37.1,30.39,SE,124,0.0,0.0,74,0.00,,,0.00,WeatherCatV1.23B14,2013-12-12 23:45:00,
2013-12-12 17:50:00,44.5,37.1,30.39,SE,124,0.0,0.0,75,0.00,,,0.00,WeatherCatV1.23B14,2013-12-12 23:50:00,
2013-12-12 17:55:00,44.4,37.0,30.39,SE,124,0.0,0.0,75,0.00,,,0.00,WeatherCatV1.23B14,2013-12-12 23:55:00,
2013-12-12 18:00:00,44.3,37.2,30.38,SE,124,0.0,0.0,76,0.00,,,0.00,WeatherCatV1.23B14,2013-12-13 00:00:00,
2013-12-12 18:05:00,44.0,36.6,30.38,SE,124,0.0,0.0,75,0.00,,,0.00,WeatherCatV1.23B14,2013-12-13 00:05:00,
2013-12-12 18:10:00,43.9,36.5,30.38,SE,124,0.0,0.0,75,0.00,,,0.00,WeatherCatV1.23B14,2013-12-13 00:10:00,
2013-12-12 18:15:00,43.7,36.0,30.38,SE,124,0.0,0.0,74,0.00,,,0.00,WeatherCatV1.23B14,2013-12-13 00:15:00,
2013-12-12 18:20:00,43.5,36.8,30.38,SE,124,0.0,0.0,77,0.00,,,0.00,WeatherCatV1.23B14,2013-12-13 00:20:00,
2013-12-12 18:25:00,43.1,36.1,30.38,SE,124,0.0,0.0,76,0.00,,,0.00,WeatherCatV1.23B14,2013-12-13 00:25:00,
2013-12-12 18:30:00,43.1,35.7,30.38,SE,124,0.0,0.0,75,0.00,,,0.00,WeatherCatV1.23B14,2013-12-13 00:30:00,
2013-12-12 18:35:00,43.0,36.0,30.39,SE,124,0.0,0.0,76,0.00,,,0.00,WeatherCatV1.23B14,2013-12-13 00:35:00,
2013-12-12 18:40:00,42.6,35.6,30.39,SE,124,0.0,0.0,76,0.00,,,0.00,WeatherCatV1.23B14,2013-12-13 00:40:00,
2013-12-12 18:45:00,42.1,35.4,30.38,SE,124,0.0,0.0,77,0.00,,,0.00,WeatherCatV1.23B14,2013-12-13 00:45:00,
2013-12-12 18:50:00,41.7,35.4,30.39,SE,124,0.0,0.0,78,0.00,,,0.00,WeatherCatV1.23B14,2013-12-13 00:50:00,
2013-12-12 18:55:00,41.3,35.0,30.39,SE,124,0.0,0.0,78,0.00,,,0.00,WeatherCatV1.23B14,2013-12-13 00:55:00,
2013-12-12 19:00:00,40.8,34.8,30.40,SSW,194,0.0,0.0,79,0.00,,,0.00,WeatherCatV1.23B14,2013-12-13 01:00:00,
2013-12-12 19:05:00,40.4,34.7,30.40,SSW,194,0.0,0.0,80,0.00,,,0.00,WeatherCatV1.23B14,2013-12-13 01:05:00,
2013-12-12 19:10:00,40.3,34.6,30.40,SSW,194,0.0,0.0,80,0.00,,,0.00,WeatherCatV1.23B14,2013-12-13 01:10:00,
2013-12-12 19:15:00,40.4,35.0,30.40,SSW,194,0.0,0.0,81,0.00,,,0.00,WeatherCatV1.23B14,2013-12-13 01:15:00,
2013-12-12 19:20:00,40.5,35.1,30.40,SSW,194,0.0,0.0,81,0.00,,,0.00,WeatherCatV1.23B14,2013-12-13 01:20:00,
2013-12-12 19:25:00,40.4,35.0,30.41,SSW,195,0.0,0.0,81,0.00,,,0.00,WeatherCatV1.23B14,2013-12-13 01:25:00,
2013-12-12 19:30:00,40.4,35.3,30.41,SSW,195,0.0,0.0,82,0.00,,,0.00,WeatherCatV1.23B14,2013-12-13 01:30:00,
2013-12-12 19:35:00,40.3,35.2,30.42,SSW,195,0.0,0.0,82,0.00,,,0.00,WeatherCatV1.23B14,2013-12-13 01:35:00,
2013-12-12 19:40:00,40.2,35.2,30.41,SSW,195,0.0,0.0,82,0.00,,,0.00,WeatherCatV1.23B14,2013-12-13 01:40:00,
2013-12-12 19:45:00,40.3,35.5,30.41,SSW,195,0.0,0.0,83,0.00,,,0.00,WeatherCatV1.23B14,2013-12-13 01:45:00,
2013-12-12 19:50:00,40.4,35.7,30.40,SSW,195,0.0,0.0,83,0.00,,,0.00,WeatherCatV1.23B14,2013-12-13 01:50:00,
2013-12-12 19:55:00,40.8,36.3,30.40,SSW,195,0.0,0.0,84,0.00,,,0.00,WeatherCatV1.23B14,2013-12-13 01:55:00,
2013-12-12 20:00:00,41.1,36.3,30.39,SSW,195,0.0,0.0,83,0.00,,,0.00,WeatherCatV1.23B14,2013-12-13 02:00:00,
2013-12-12 20:05:00,41.2,36.4,30.39,SSW,195,0.0,0.0,83,0.00,,,0.00,WeatherCatV1.23B14,2013-12-13 02:05:00,
2013-12-12 20:10:00,41.2,36.4,30.39,SSW,195,0.0,0.0,83,0.00,,,0.00,WeatherCatV1.23B14,2013-12-13 02:10:00,
2013-12-12 20:15:00,41.2,36.7,30.39,SSW,195,0.0,0.0,84,0.00,,,0.00,WeatherCatV1.23B14,2013-12-13 02:15:00,
2013-12-12 20:20:00,41.1,36.6,30.38,SSW,195,0.0,0.0,84,0.00,,,0.00,WeatherCatV1.23B14,2013-12-13 02:20:00,
2013-12-12 20:25:00,41.2,37.0,30.38,SSW,195,0.0,0.0,85,0.00,,,0.00,WeatherCatV1.23B14,2013-12-13 02:25:00,
2013-12-12 20:30:00,41.3,36.8,30.37,SSW,195,0.0,0.0,84,0.00,,,0.00,WeatherCatV1.23B14,2013-12-13 02:30:00,
2013-12-12 20:35:00,41.4,36.6,30.37,SSW,195,0.0,0.0,83,0.00,,,0.00,WeatherCatV1.23B14,2013-12-13 02:35:00,
2013-12-12 20:40:00,41.5,37.0,30.37,South,183,0.0,0.0,84,0.00,,,0.00,WeatherCatV1.23B14,2013-12-13 02:40:00,
2013-12-12 20:45:00,42.0,36.9,30.36,ESE,115,0.0,1.0,82,0.00,,,0.00,WeatherCatV1.23B14,2013-12-13 02:45:00,
2013-12-12 20:50:00,42.9,36.5,30.37,ESE,120,2.0,2.0,78,0.00,,,0.00,WeatherCatV1.23B14,2013-12-13 02:50:00,
2013-12-12 20:55:00,43.4,36.7,30.37,ESE,122,1.0,1.0,77,0.00,,,0.00,WeatherCatV1.23B14,2013-12-13 02:55:00,
2013-12-12 21:00:00,43.5,36.5,30.36,ESE,110,1.0,1.0,76,0.00,,,0.00,WeatherCatV1.23B14,2013-12-13 03:00:00,
2013-12-12 21:05:00,43.6,37.2,30.37,SE,126,0.0,0.0,78,0.00,,,0.00,WeatherCatV1.23B14,2013-12-13 03:05:00,
2013-12-12 21:10:00,43.8,36.4,30.37,ESE,122,0.0,3.0,75,0.00,,,0.00,WeatherCatV1.23B14,2013-12-13 03:10:00,
2013-12-12 21:15:00,44.0,36.2,30.36,SE,127,0.0,1.0,74,0.00,,,0.00,WeatherCatV1.23B14,2013-12-13 03:15:00,
2013-12-12 21:20:00,44.1,36.3,30.37,SE,133,0.0,1.0,74,0.00,,,0.00,WeatherCatV1.23B14,2013-12-13 03:20:00,
2013-12-12 21:25:00,43.9,36.5,30.37,SE,127,0.0,1.0,75,0.00,,,0.00,WeatherCatV1.23B14,2013-12-13 03:25:00,
2013-12-12 21:30:00,43.9,36.5,30.36,SE,126,0.0,0.0,75,0.00,,,0.00,WeatherCatV1.23B14,2013-12-13 03:30:00,
2013-12-12 21:35:00,43.6,36.2,30.36,ESE,120,0.0,1.0,75,0.00,,,0.00,WeatherCatV1.23B14,2013-12-13 03:35:00,
2013-12-12 21:40:00,43.6,36.2,30.36,SE,124,0.0,1.0,75,0.00,,,0.00,WeatherCatV1.23B14,2013-12-13 03:40:00,
2013-12-12 21:45:00,43.5,36.1,30.36,ESE,122,1.0,1.0,75,0.00,,,0.00,WeatherCatV1.23B14,2013-12-13 03:45:00,
2013-12-12 21:50:00,43.4,36.3,30.36,ESE,114,0.0,0.0,76,0.00,,,0.00,WeatherCatV1.23B14,2013-12-13 03:50:00,
2013-12-12 21:55:00,43.3,36.2,30.36,ESE,114,0.0,0.0,76,0.00,,,0.00,WeatherCatV1.23B14,2013-12-13 03:55:00,
2013-12-12 22:00:00,43.2,36.5,30.36,ESE,114,0.0,0.0,77,0.00,,,0.00,WeatherCatV1.23B14,2013-12-13 04:00:00,
2013-12-12 22:05:00,43.0,36.3,30.36,ESE,114,0.0,0.0,77,0.00,,,0.00,WeatherCatV1.23B14,2013-12-13 04:05:00,
2013-12-12 22:10:00,42.9,35.9,30.36,ESE,114,0.0,0.0,76,0.00,,,0.00,WeatherCatV1.23B14,2013-12-13 04:10:00,
2013-12-12 22:15:00,42.8,35.8,30.36,ESE,114,0.0,0.0,76,0.00,,,0.00,WeatherCatV1.23B14,2013-12-13 04:15:00,
2013-12-12 22:20:00,42.8,36.1,30.36,ESE,114,0.0,0.0,77,0.00,,,0.00,WeatherCatV1.23B14,2013-12-13 04:20:00,
2013-12-12 22:25:00,42.7,36.3,30.36,ESE,114,0.0,0.0,78,0.00,,,0.00,WeatherCatV1.23B14,2013-12-13 04:25:00,
2013-12-12 22:30:00,42.7,35.7,30.36,SE,139,0.0,1.0,76,0.00,,,0.00,WeatherCatV1.23B14,2013-12-13 04:30:00,
2013-12-12 22:35:00,43.0,36.0,30.36,ESE,120,0.0,0.0,76,0.00,,,0.00,WeatherCatV1.23B14,2013-12-13 04:35:00,
2013-12-12 22:40:00,43.2,35.8,30.35,ESE,119,0.0,1.0,75,0.00,,,0.00,WeatherCatV1.23B14,2013-12-13 04:40:00,
2013-12-12 22:45:00,43.3,35.9,30.35,ESE,116,0.0,0.0,75,0.00,,,0.00,WeatherCatV1.23B14,2013-12-13 04:45:00,
2013-12-12 22:50:00,43.3,35.9,30.35,ESE,115,0.0,0.0,75,0.00,,,0.00,WeatherCatV1.23B14,2013-12-13 04:50:00,
2013-12-12 22:55:00,43.3,36.6,30.34,ESE,116,0.0,0.0,77,0.00,,,0.00,WeatherCatV1.23B14,2013-12-13 04:55:00,
2013-12-12 23:00:00,43.2,36.5,30.34,SE,128,0.0,1.0,77,0.00,,,0.00,WeatherCatV1.23B14,2013-12-13 05:00:00,
2013-12-12 23:01:00,43.2,36.5,30.34,SE,128,0.0,1.0,77,0.00,,,0.00,WeatherCatV1.23B14,2013-12-13 05:01:00,
2013-12-12 23:06:00,43.2,35.8,30.34,ESE,119,1.0,1.0,75,0.00,,,0.00,WeatherCatV1.23B14,2013-12-13 05:06:00,
2013-12-12 23:11:00,43.3,35.9,30.33,SE,124,0.0,0.0,75,0.00,,,0.00,WeatherCatV1.23B14,2013-12-13 05:11:00,
2013-12-12 23:16:00,43.3,35.9,30.33,ESE,110,0.0,1.0,75,0.00,,,0.00,WeatherCatV1.23B14,2013-12-13 05:16:00,
2013-12-12 23:21:00,43.3,35.9,30.33,SE,124,0.0,0.0,75,0.00,,,0.00,WeatherCatV1.23B14,2013-12-13 05:21:00,
2013-12-12 23:26:00,43.4,36.0,30.33,ESE,113,1.0,1.0,75,0.00,,,0.00,WeatherCatV1.23B14,2013-12-13 05:26:00,
2013-12-12 23:31:00,43.5,36.5,30.33,ESE,105,0.0,0.0,76,0.00,,,0.00,WeatherCatV1.23B14,2013-12-13 05:31:00,
2013-12-12 23:36:00,43.6,35.9,30.33,SSE,155,0.0,2.0,74,0.00,,,0.00,WeatherCatV1.23B14,2013-12-13 05:36:00,
2013-12-12 23:41:00,43.7,36.0,30.33,SE,135,1.0,2.0,74,0.00,,,0.00,WeatherCatV1.23B14,2013-12-13 05:41:00,
2013-12-12 23:46:00,43.7,36.0,30.32,East,96,2.0,3.0,74,0.00,,,0.00,WeatherCatV1.23B14,2013-12-13 05:46:00,
2013-12-12 23:51:00,43.8,35.7,30.31,ESE,108,1.0,3.0,73,0.00,,,0.00,WeatherCatV1.23B14,2013-12-13 05:51:00,
2013-12-12 23:56:00,43.8,35.7,30.30,ESE,112,2.0,3.0,73,0.00,,,0.00,WeatherCatV1.23B14,2013-12-13 05:56:00,